UAE834 OBBI-OMDB

Flight info

Callsign UAE834
Flight time 0h 54m
Altitude 25000
Route BHR N697 SODAK P559 VUTEB
Aircraft B77W/H-SDE1E2E3FGHIJ2J3J4J5M1RWXY/LB1D1

Departure

Time 2026-05-07 18:55
Airport Bahrain International Airport (OBBI)

Arrival

Time 2026-05-07 19:49
Airport Dubai International Airport (OMDB)
Time Latitude Longitude Altitude Speed Heading
2026-05-07 18:16 26.26844 50.63002 -2 ft 0 kts 213°
2026-05-07 18:23 26.26851 50.63007 25 ft 0 kts 213°
2026-05-07 18:42 26.26864 50.63017 31 ft 4 kts 213°
2026-05-07 18:42 26.26887 50.63033 31 ft 4 kts 212°
2026-05-07 18:42 26.26907 50.63047 26 ft 4 kts 211°
2026-05-07 18:43 26.26922 50.63054 26 ft 4 kts 177°
2026-05-07 18:43 26.26942 50.63044 32 ft 4 kts 128°
2026-05-07 18:43 26.26955 50.63022 29 ft 1 kts 122°
2026-05-07 18:43 26.26958 50.63018 26 ft 0 kts 122°
2026-05-07 18:48 26.26942 50.63044 30 ft 12 kts 122°
2026-05-07 18:48 26.26912 50.63101 30 ft 5 kts 114°
2026-05-07 18:49 26.26916 50.63141 30 ft 5 kts 62°
2026-05-07 18:49 26.26946 50.63170 28 ft 6 kts 38°
2026-05-07 18:49 26.26956 50.63214 28 ft 6 kts 106°
2026-05-07 18:49 26.26935 50.63263 27 ft 8 kts 119°
2026-05-07 18:50 26.26890 50.63342 27 ft 16 kts 122°
2026-05-07 18:50 26.26830 50.63446 28 ft 16 kts 122°
2026-05-07 18:50 26.26770 50.63550 24 ft 16 kts 122°
2026-05-07 18:50 26.26710 50.63654 28 ft 16 kts 123°
2026-05-07 18:51 26.26650 50.63758 29 ft 16 kts 122°
2026-05-07 18:51 26.26590 50.63862 31 ft 16 kts 123°
2026-05-07 18:51 26.26530 50.63966 26 ft 16 kts 122°
2026-05-07 18:51 26.26464 50.64081 28 ft 21 kts 122°
2026-05-07 18:52 26.26386 50.64216 25 ft 21 kts 123°
2026-05-07 18:52 26.26308 50.64351 28 ft 21 kts 123°
2026-05-07 18:52 26.26230 50.64486 24 ft 21 kts 123°
2026-05-07 18:52 26.26152 50.64621 28 ft 21 kts 123°
2026-05-07 18:53 26.26076 50.64754 30 ft 21 kts 122°
2026-05-07 18:53 26.26019 50.64871 30 ft 12 kts 101°
2026-05-07 18:53 26.26046 50.64956 24 ft 13 kts 50°
2026-05-07 18:53 26.26120 50.65001 24 ft 10 kts 359°
2026-05-07 18:54 26.26171 50.64947 23 ft 11 kts 299°
2026-05-07 18:54 26.26210 50.64877 26 ft 11 kts 303°
2026-05-07 18:54 26.26288 50.64743 24 ft 38 kts 303°
2026-05-07 18:54 26.26590 50.64219 20 ft 123 kts 302°
2026-05-07 18:55 26.27187 50.63187 124 ft 180 kts 304°
2026-05-07 18:55 26.27877 50.62017 1014 ft 176 kts 309°
2026-05-07 18:55 26.28800 50.61124 1897 ft 182 kts 337°
2026-05-07 18:55 26.30059 50.60696 2478 ft 199 kts 347°
2026-05-07 18:56 26.31497 50.60578 2832 ft 224 kts 14°
2026-05-07 18:56 26.32858 50.61552 3193 ft 251 kts 51°
2026-05-07 18:56 26.33505 50.63421 3864 ft 266 kts 77°
2026-05-07 18:56 26.33877 50.65473 4621 ft 272 kts 72°
2026-05-07 18:57 26.34420 50.67482 5679 ft 272 kts 69°
2026-05-07 18:57 26.35056 50.69492 6576 ft 279 kts 69°
2026-05-07 18:57 26.35741 50.71541 7419 ft 285 kts 69°
2026-05-07 18:57 26.36588 50.73531 8257 ft 288 kts 52°
2026-05-07 18:58 26.38082 50.75029 9004 ft 294 kts 37°
2026-05-07 18:58 26.39749 50.76405 9832 ft 301 kts 38°
2026-05-07 18:58 26.41434 50.77831 10597 ft 310 kts 38°
2026-05-07 18:58 26.43223 50.79361 10882 ft 339 kts 38°
2026-05-07 18:59 26.45169 50.81031 11088 ft 367 kts 38°
2026-05-07 18:59 26.47236 50.82806 11674 ft 381 kts 38°
2026-05-07 18:59 26.49364 50.84641 12409 ft 390 kts 38°
2026-05-07 18:59 26.51524 50.86506 13340 ft 394 kts 38°
2026-05-07 19:00 26.53714 50.88398 14113 ft 402 kts 38°
2026-05-07 19:00 26.55941 50.90323 14927 ft 406 kts 38°
2026-05-07 19:00 26.58184 50.92262 15755 ft 411 kts 38°
2026-05-07 19:00 26.60464 50.94235 16488 ft 418 kts 38°
2026-05-07 19:01 26.62779 50.96240 17253 ft 425 kts 38°
2026-05-07 19:01 26.65132 50.98278 18024 ft 431 kts 38°
2026-05-07 19:01 26.67515 51.00345 18684 ft 437 kts 38°
2026-05-07 19:01 26.69928 51.02443 19381 ft 442 kts 38°
2026-05-07 19:02 26.72348 51.04593 20027 ft 443 kts 41°
2026-05-07 19:02 26.74354 51.07232 20489 ft 451 kts 62°
2026-05-07 19:02 26.75463 51.10507 21157 ft 451 kts 81°
2026-05-07 19:02 26.75709 51.13926 22050 ft 445 kts 95°
2026-05-07 19:03 26.75189 51.17291 22973 ft 434 kts 111°
2026-05-07 19:03 26.74172 51.20473 23729 ft 434 kts 113°
2026-05-07 19:03 26.73097 51.23624 24454 ft 435 kts 114°
2026-05-07 19:03 26.72012 51.26802 24844 ft 438 kts 114°
2026-05-07 19:04 26.70950 51.29985 24846 ft 436 kts 113°
2026-05-07 19:04 26.69913 51.33164 24856 ft 434 kts 113°
2026-05-07 19:04 26.68890 51.36343 24846 ft 436 kts 112°
2026-05-07 19:04 26.67863 51.39540 24858 ft 438 kts 112°
2026-05-07 19:05 26.66830 51.42749 24873 ft 439 kts 112°
2026-05-07 19:05 26.65794 51.45966 24856 ft 441 kts 112°
2026-05-07 19:05 26.64758 51.49191 24859 ft 441 kts 112°
2026-05-07 19:05 26.63720 51.52424 24857 ft 442 kts 112°
2026-05-07 19:06 26.62682 51.55654 24845 ft 441 kts 112°
2026-05-07 19:06 26.60613 51.62088 24839 ft 439 kts 112°
2026-05-07 19:06 26.59581 51.65291 24840 ft 437 kts 112°
2026-05-07 19:07 26.58551 51.68480 24835 ft 436 kts 112°
2026-05-07 19:07 26.57524 51.71656 24836 ft 435 kts 112°
2026-05-07 19:07 26.56490 51.74832 24841 ft 435 kts 112°
2026-05-07 19:07 26.55474 51.77959 24838 ft 434 kts 112°
2026-05-07 19:08 26.54453 51.81128 24833 ft 434 kts 112°
2026-05-07 19:08 26.53434 51.84298 24834 ft 434 kts 112°
2026-05-07 19:08 26.52413 51.87465 24840 ft 434 kts 112°
2026-05-07 19:08 26.51374 51.90626 24839 ft 434 kts 112°
2026-05-07 19:09 26.50317 51.93790 24834 ft 435 kts 113°
2026-05-07 19:09 26.49261 51.96947 24850 ft 435 kts 112°
2026-05-07 19:09 26.48201 52.00120 24831 ft 435 kts 112°
2026-05-07 19:09 26.47145 52.03281 24829 ft 435 kts 112°
2026-05-07 19:10 26.46089 52.06446 24829 ft 434 kts 112°
2026-05-07 19:10 26.45035 52.09606 24829 ft 434 kts 112°
2026-05-07 19:10 26.43981 52.12758 24843 ft 434 kts 112°
2026-05-07 19:10 26.42924 52.15914 24831 ft 434 kts 112°
2026-05-07 19:11 26.41865 52.19071 24842 ft 434 kts 112°
2026-05-07 19:11 26.40808 52.22219 24827 ft 434 kts 112°
2026-05-07 19:11 26.39748 52.25374 24844 ft 434 kts 112°
2026-05-07 19:11 26.38689 52.28524 24825 ft 434 kts 112°
2026-05-07 19:12 26.37629 52.31678 24823 ft 434 kts 112°
2026-05-07 19:12 26.36570 52.34825 24842 ft 433 kts 113°
2026-05-07 19:12 26.35512 52.37966 24838 ft 433 kts 113°
2026-05-07 19:12 26.34412 52.41081 24817 ft 431 kts 115°
2026-05-07 19:13 26.33238 52.44150 24831 ft 430 kts 116°
2026-05-07 19:13 26.32043 52.47200 24832 ft 429 kts 116°
2026-05-07 19:13 26.30850 52.50248 24828 ft 429 kts 116°
2026-05-07 19:13 26.29668 52.53293 24827 ft 429 kts 116°
2026-05-07 19:14 26.28473 52.56393 24845 ft 444 kts 115°
2026-05-07 19:14 26.27240 52.59603 24849 ft 459 kts 115°
2026-05-07 19:14 26.25960 52.62942 24850 ft 473 kts 115°
2026-05-07 19:14 26.24668 52.66312 24845 ft 477 kts 115°
2026-05-07 19:15 26.23377 52.69679 24834 ft 477 kts 115°
2026-05-07 19:15 26.22076 52.73073 24826 ft 476 kts 115°
2026-05-07 19:15 26.20774 52.76469 24828 ft 475 kts 115°
2026-05-07 19:15 26.19481 52.79839 24825 ft 475 kts 115°
2026-05-07 19:16 26.18179 52.83229 24835 ft 477 kts 115°
2026-05-07 19:16 26.16862 52.86652 24847 ft 487 kts 115°
2026-05-07 19:16 26.15512 52.90159 24851 ft 498 kts 115°
2026-05-07 19:16 26.14140 52.93724 24847 ft 504 kts 115°
2026-05-07 19:17 26.12760 52.97316 24835 ft 504 kts 115°
2026-05-07 19:17 26.11384 53.00894 24824 ft 502 kts 115°
2026-05-07 19:17 26.10015 53.04443 24815 ft 501 kts 115°
2026-05-07 19:17 26.08672 53.08022 24820 ft 501 kts 114°
2026-05-07 19:18 26.07355 53.11617 24827 ft 501 kts 114°
2026-05-07 19:18 26.06051 53.15211 24831 ft 502 kts 114°
2026-05-07 19:18 26.04742 53.18812 24831 ft 503 kts 114°
2026-05-07 19:18 26.03426 53.22415 24832 ft 503 kts 114°
2026-05-07 19:19 26.02107 53.26008 24830 ft 504 kts 114°
2026-05-07 19:19 26.00775 53.29624 24829 ft 505 kts 114°
2026-05-07 19:19 25.99443 53.33238 24831 ft 505 kts 114°
2026-05-07 19:19 25.98109 53.36853 24829 ft 506 kts 114°
2026-05-07 19:20 25.96776 53.40466 24829 ft 506 kts 114°
2026-05-07 19:20 25.95441 53.44081 24826 ft 506 kts 114°
2026-05-07 19:20 25.94100 53.47704 24822 ft 506 kts 114°
2026-05-07 19:20 25.92774 53.51319 24824 ft 506 kts 113°
2026-05-07 19:21 25.91507 53.54955 24821 ft 506 kts 112°
2026-05-07 19:21 25.90267 53.58619 24821 ft 506 kts 112°
2026-05-07 19:21 25.89034 53.62272 24821 ft 505 kts 112°
2026-05-07 19:21 25.87790 53.65922 24822 ft 505 kts 112°
2026-05-07 19:22 25.86536 53.69563 24822 ft 505 kts 112°
2026-05-07 19:22 25.85276 53.73204 24820 ft 505 kts 113°
2026-05-07 19:22 25.84010 53.76836 24816 ft 506 kts 113°
2026-05-07 19:22 25.82738 53.80475 24813 ft 506 kts 113°
2026-05-07 19:23 25.81469 53.84109 24816 ft 506 kts 113°
2026-05-07 19:23 25.80195 53.87756 24817 ft 506 kts 113°
2026-05-07 19:23 25.78924 53.91395 24817 ft 506 kts 113°
2026-05-07 19:23 25.77657 53.95022 24797 ft 502 kts 113°
2026-05-07 19:24 25.76407 53.98598 24591 ft 490 kts 113°
2026-05-07 19:24 25.75192 54.02089 24056 ft 484 kts 112°
2026-05-07 19:24 25.74061 54.05601 23351 ft 482 kts 111°
2026-05-07 19:24 25.72997 54.09111 22653 ft 477 kts 110°
2026-05-07 19:25 25.71964 54.12576 22066 ft 470 kts 110°
2026-05-07 19:25 25.70938 54.15987 21475 ft 463 kts 110°
2026-05-07 19:25 25.69913 54.19349 20894 ft 457 kts 110°
2026-05-07 19:25 25.68893 54.22659 20308 ft 451 kts 111°
2026-05-07 19:26 25.67880 54.25928 19754 ft 446 kts 110°
2026-05-07 19:26 25.66878 54.29156 19185 ft 441 kts 110°
2026-05-07 19:26 25.65885 54.32355 18640 ft 436 kts 110°
2026-05-07 19:26 25.64911 54.35506 18131 ft 430 kts 110°
2026-05-07 19:27 25.63956 54.38619 17517 ft 425 kts 109°
2026-05-07 19:27 25.63008 54.41725 16853 ft 423 kts 110°
2026-05-07 19:27 25.62070 54.44796 16247 ft 419 kts 110°
2026-05-07 19:27 25.61138 54.47837 15602 ft 417 kts 109°
2026-05-07 19:28 25.60237 54.50774 15323 ft 384 kts 109°
2026-05-07 19:28 25.59408 54.53475 14780 ft 359 kts 109°
2026-05-07 19:28 25.58626 54.56020 14262 ft 340 kts 109°
2026-05-07 19:28 25.58087 54.58565 13797 ft 337 kts 96°
2026-05-07 19:29 25.58052 54.61080 13368 ft 327 kts 85°
2026-05-07 19:29 25.58357 54.63544 12807 ft 323 kts 82°
2026-05-07 19:29 25.58691 54.66017 12406 ft 325 kts 82°
2026-05-07 19:29 25.59019 54.68476 12186 ft 320 kts 82°
2026-05-07 19:30 25.59336 54.70901 11956 ft 317 kts 82°
2026-05-07 19:30 25.59649 54.73312 11628 ft 316 kts 82°
2026-05-07 19:30 25.59956 54.75718 11314 ft 316 kts 82°
2026-05-07 19:30 25.60261 54.78125 11123 ft 311 kts 82°
2026-05-07 19:31 25.60554 54.80452 11048 ft 300 kts 82°
2026-05-07 19:31 25.60745 54.81979 11002 ft 293 kts 82°
2026-05-07 19:31 25.61022 54.84178 10887 ft 284 kts 82°
2026-05-07 19:31 25.61066 54.87090 9935 ft 297 kts 107°
2026-05-07 19:32 25.60541 54.88527 9509 ft 300 kts 115°
2026-05-07 19:32 25.59670 54.90623 9205 ft 297 kts 114°
2026-05-07 19:32 25.58836 54.92702 8949 ft 293 kts 114°
2026-05-07 19:32 25.58029 54.94732 8713 ft 290 kts 114°
2026-05-07 19:33 25.57225 54.96763 8517 ft 287 kts 114°
2026-05-07 19:33 25.56416 54.98814 8335 ft 295 kts 114°
2026-05-07 19:33 25.55584 55.00930 8176 ft 305 kts 114°
2026-05-07 19:33 25.54682 55.03210 8117 ft 339 kts 114°
2026-05-07 19:34 25.53598 55.05585 8044 ft 349 kts 119°
2026-05-07 19:34 25.52373 55.07908 8002 ft 350 kts 121°
2026-05-07 19:34 25.51121 55.10224 7984 ft 350 kts 121°
2026-05-07 19:34 25.49881 55.12547 7983 ft 349 kts 120°
2026-05-07 19:35 25.48665 55.14865 7985 ft 349 kts 120°
2026-05-07 19:35 25.47450 55.17195 7977 ft 349 kts 120°
2026-05-07 19:35 25.46239 55.19516 7975 ft 347 kts 121°
2026-05-07 19:35 25.44827 55.21674 7969 ft 347 kts 131°
2026-05-07 19:36 25.43190 55.23640 7979 ft 348 kts 134°
2026-05-07 19:36 25.41508 55.25576 7988 ft 350 kts 134°
2026-05-07 19:36 25.39837 55.27542 7988 ft 352 kts 133°
2026-05-07 19:36 25.38182 55.29549 7892 ft 355 kts 132°
2026-05-07 19:37 25.36528 55.31574 7685 ft 355 kts 132°
2026-05-07 19:37 25.34947 55.33652 7472 ft 352 kts 126°
2026-05-07 19:37 25.33634 55.35923 7267 ft 350 kts 120°
2026-05-07 19:37 25.32423 55.38243 7052 ft 347 kts 120°
2026-05-07 19:38 25.31222 55.40542 6803 ft 347 kts 120°
2026-05-07 19:38 25.29989 55.42824 6553 ft 346 kts 121°
2026-05-07 19:38 25.28735 55.45092 6303 ft 346 kts 122°
2026-05-07 19:38 25.27472 55.47361 6011 ft 347 kts 122°
2026-05-07 19:39 25.26206 55.49630 5699 ft 347 kts 122°
2026-05-07 19:39 25.24939 55.51905 5391 ft 348 kts 122°
2026-05-07 19:39 25.23688 55.54153 5077 ft 341 kts 122°
2026-05-07 19:39 25.22446 55.56384 4791 ft 341 kts 122°
2026-05-07 19:40 25.21212 55.58604 4480 ft 333 kts 122°
2026-05-07 19:40 25.20047 55.60698 4111 ft 307 kts 123°
2026-05-07 19:40 25.18964 55.62639 3761 ft 287 kts 123°
2026-05-07 19:40 25.17951 55.64458 3429 ft 270 kts 123°
2026-05-07 19:41 25.17003 55.66162 3208 ft 251 kts 123°
2026-05-07 19:41 25.16121 55.67744 3069 ft 234 kts 123°
2026-05-07 19:41 25.15250 55.69186 2972 ft 216 kts 139°
2026-05-07 19:41 25.13978 55.69970 3030 ft 210 kts 173°
2026-05-07 19:42 25.12564 55.69820 3002 ft 203 kts 205°
2026-05-07 19:42 25.11340 55.69118 2990 ft 200 kts 220°
2026-05-07 19:42 25.10567 55.67916 2995 ft 193 kts 257°
2026-05-07 19:42 25.10495 55.66458 3009 ft 191 kts 270°
2026-05-07 19:43 25.10415 55.64964 3012 ft 197 kts 264°
2026-05-07 19:43 25.10324 55.63475 3005 ft 193 kts 278°
2026-05-07 19:43 25.10919 55.62164 3019 ft 194 kts 303°
2026-05-07 19:43 25.11669 55.60895 2944 ft 201 kts 300°
2026-05-07 19:44 25.12411 55.59575 2683 ft 201 kts 300°
2026-05-07 19:44 25.13132 55.58289 2418 ft 193 kts 300°
2026-05-07 19:44 25.13831 55.57043 2229 ft 190 kts 300°
2026-05-07 19:44 25.14527 55.55800 2099 ft 190 kts 300°
2026-05-07 19:45 25.15222 55.54559 2050 ft 191 kts 300°
2026-05-07 19:45 25.15900 55.53337 1992 ft 179 kts 301°
2026-05-07 19:45 25.16523 55.52231 1983 ft 161 kts 301°
2026-05-07 19:45 25.17113 55.51194 1997 ft 159 kts 301°
2026-05-07 19:46 25.17688 55.50166 2003 ft 157 kts 300°
2026-05-07 19:46 25.18265 55.49122 1934 ft 162 kts 300°
2026-05-07 19:46 25.18853 55.48059 1705 ft 160 kts 301°
2026-05-07 19:46 25.19424 55.47030 1539 ft 155 kts 301°
2026-05-07 19:47 25.19987 55.46010 1327 ft 154 kts 301°
2026-05-07 19:47 25.20533 55.45033 1111 ft 145 kts 301°
2026-05-07 19:47 25.21050 55.44092 945 ft 142 kts 301°
2026-05-07 19:47 25.21562 55.43166 784 ft 141 kts 301°
2026-05-07 19:48 25.22071 55.42230 625 ft 143 kts 301°
2026-05-07 19:48 25.22597 55.41284 426 ft 145 kts 302°
2026-05-07 19:48 25.23115 55.40351 248 ft 142 kts 302°
2026-05-07 19:48 25.23621 55.39430 60 ft 140 kts 302°
2026-05-07 19:49 25.24038 55.38677 28 ft 113 kts 300°
2026-05-07 19:49 25.24374 55.38077 30 ft 77 kts 301°
2026-05-07 19:49 25.24571 55.37715 27 ft 38 kts 296°
2026-05-07 19:49 25.24612 55.37486 27 ft 27 kts 272°
2026-05-07 19:50 25.24617 55.37337 26 ft 15 kts 271°
2026-05-07 19:50 25.24638 55.37239 26 ft 11 kts 297°
2026-05-07 19:50 25.24670 55.37178 27 ft 0 kts 302°
2026-05-07 19:51 25.24671 55.37178 27 ft 0 kts 302°
2026-05-07 19:51 25.24672 55.37176 27 ft 1 kts 302°
2026-05-07 19:52 25.24680 55.37161 27 ft 5 kts 302°
2026-05-07 19:52 25.24702 55.37123 27 ft 6 kts 302°
2026-05-07 19:52 25.24725 55.37083 27 ft 6 kts 302°
2026-05-07 19:52 25.24748 55.37041 27 ft 7 kts 302°
2026-05-07 19:53 25.24766 55.37009 27 ft 7 kts 302°
2026-05-07 19:53 25.24786 55.36973 27 ft 7 kts 302°
2026-05-07 19:53 25.24805 55.36940 27 ft 7 kts 302°
2026-05-07 19:53 25.24826 55.36899 27 ft 0 kts 300°
2026-05-07 19:54 25.24826 55.36898 27 ft 2 kts 300°
2026-05-07 19:54 25.24852 55.36835 26 ft 15 kts 288°
2026-05-07 19:54 25.24876 55.36719 26 ft 16 kts 286°
2026-05-07 19:54 25.24924 55.36609 30 ft 16 kts 301°
2026-05-07 19:55 25.24944 55.36552 28 ft 5 kts 262°
2026-05-07 19:55 25.24921 55.36521 31 ft 6 kts 221°
2026-05-07 19:55 25.24888 55.36495 30 ft 6 kts 211°
2026-05-07 19:55 25.24849 55.36469 31 ft 7 kts 211°
2026-05-07 19:56 25.24823 55.36452 26 ft 2 kts 211°
2026-05-07 19:56 25.24811 55.36444 26 ft 0 kts 211°
2026-05-07 19:56 25.24807 55.36441 26 ft 1 kts 211°
2026-05-07 19:56 25.24803 55.36438 26 ft 0 kts 211°